Terminal Aerodrome Forecast
Issued by NWS Knoxville/Tri Cities, TN

Home | Current Version | Previous Version | Text Only | Print | Product List | Glossary On
Versions: 1 2 3 4 5 6 7 8 9 10 11 12 13 14 15 16 17 18 19 20 21 22 23 24 25 26 27 28 29 30 31 32 33 34 35 36 37 38
000
FTUS44 KMRX 051729
TAFTRI
TAF
KTRI 051729Z 0518/0618 13004KT P6SM SCT015 BKN030
      TEMPO 0518/0519 BKN015
     FM052100 07006KT P6SM SCT040 BKN150
     FM060300 07008KT 4SM -RA OVC040=

USA.gov is the U.S. government's official web portal to all federal, state and local government web resources and services.